Year,Month,Day,Hour,Minute,Value (Times are PST for temperature in C)
2009,05,03,07,54,10.70
2009,05,03,07,55,10.70
2009,05,03,07,56,10.70
2009,05,03,07,57,10.80
2009,05,03,07,58,10.80
2009,05,03,07,59,10.80
2009,05,03,08,00,10.90
2009,05,03,08,01,10.90
2009,05,03,08,02,11.00
2009,05,03,08,03,11.00
2009,05,03,08,04,11.00
2009,05,03,08,05,11.00
2009,05,03,08,06,10.90
2009,05,03,08,07,10.80
2009,05,03,08,08,10.70
2009,05,03,08,09,10.70
2009,05,03,08,10,10.70
2009,05,03,08,11,10.70
2009,05,03,08,12,10.70
2009,05,03,08,13,10.60
2009,05,03,08,14,10.70
2009,05,03,08,15,10.60
2009,05,03,08,16,10.60
2009,05,03,08,17,10.60
2009,05,03,08,18,10.60
2009,05,03,08,19,10.60
2009,05,03,08,20,10.60
2009,05,03,08,21,10.60
2009,05,03,08,22,10.70
2009,05,03,08,23,10.70
2009,05,03,08,24,10.70
2009,05,03,08,25,10.70
2009,05,03,08,26,10.80
2009,05,03,08,27,10.80
2009,05,03,08,28,10.90
2009,05,03,08,29,11.00
2009,05,03,08,30,11.10
2009,05,03,08,31,11.30
2009,05,03,08,32,11.40
2009,05,03,08,33,11.50
2009,05,03,08,34,11.60
2009,05,03,08,35,11.60
2009,05,03,08,36,11.50
2009,05,03,08,37,11.40
2009,05,03,08,38,11.30
2009,05,03,08,39,11.20
2009,05,03,08,40,11.20
2009,05,03,08,41,11.10
2009,05,03,08,42,11.10
2009,05,03,08,43,11.00
2009,05,03,08,44,10.90
2009,05,03,08,45,10.90
2009,05,03,08,46,10.90
2009,05,03,08,47,10.90
2009,05,03,08,48,10.90
2009,05,03,08,49,10.90
2009,05,03,08,50,10.90
2009,05,03,08,51,11.00
2009,05,03,08,52,11.10
2009,05,03,08,53,11.10
2009,05,03,08,54,11.10
2009,05,03,08,55,11.10
2009,05,03,08,56,11.10
2009,05,03,08,57,11.10
2009,05,03,08,58,11.20
2009,05,03,08,59,11.20
2009,05,03,09,00,11.20
2009,05,03,09,01,11.30
2009,05,03,09,02,11.30
2009,05,03,09,03,11.30
2009,05,03,09,04,11.30
2009,05,03,09,05,11.20
2009,05,03,09,06,11.20
2009,05,03,09,07,11.20
2009,05,03,09,08,11.20
2009,05,03,09,09,11.20
2009,05,03,09,10,11.20
2009,05,03,09,11,11.20
2009,05,03,09,12,11.10
2009,05,03,09,13,11.10
2009,05,03,09,14,11.10
2009,05,03,09,15,11.10
2009,05,03,09,16,11.10
2009,05,03,09,17,11.20
2009,05,03,09,18,11.20
2009,05,03,09,19,11.30
2009,05,03,09,20,11.30
2009,05,03,09,21,11.40
2009,05,03,09,22,11.40
2009,05,03,09,23,11.40
2009,05,03,09,24,11.40
2009,05,03,09,25,11.40
2009,05,03,09,26,11.30
2009,05,03,09,27,11.30
2009,05,03,09,28,11.30
2009,05,03,09,29,11.30
2009,05,03,09,30,11.30
2009,05,03,09,31,11.30
2009,05,03,09,32,11.40
2009,05,03,09,33,11.50
2009,05,03,09,34,11.50
2009,05,03,09,35,11.60
2009,05,03,09,36,11.70
2009,05,03,09,37,11.70
2009,05,03,09,38,11.70
2009,05,03,09,39,11.70
2009,05,03,09,40,11.70
2009,05,03,09,41,11.70
2009,05,03,09,42,11.60
2009,05,03,09,43,11.60
2009,05,03,09,44,11.50
2009,05,03,09,45,11.40
2009,05,03,09,46,11.40
2009,05,03,09,47,11.50
2009,05,03,09,48,11.50
2009,05,03,09,49,11.60
2009,05,03,09,50,11.50
2009,05,03,09,51,11.50
2009,05,03,09,52,11.40
2009,05,03,09,53,11.40
2009,05,03,09,54,11.40
2009,05,03,09,55,11.40
2009,05,03,09,56,11.40
2009,05,03,09,57,11.40
2009,05,03,09,58,11.40
2009,05,03,09,59,11.40
2009,05,03,10,00,11.50
2009,05,03,10,01,11.50
2009,05,03,10,02,11.50
2009,05,03,10,03,11.50
2009,05,03,10,04,11.50
2009,05,03,10,05,11.60
2009,05,03,10,06,11.60
2009,05,03,10,07,11.60
2009,05,03,10,08,11.70
2009,05,03,10,09,11.80
2009,05,03,10,10,11.80
2009,05,03,10,11,11.80
2009,05,03,10,12,11.90
2009,05,03,10,13,11.90
2009,05,03,10,14,12.00
2009,05,03,10,15,12.00
2009,05,03,10,16,12.00
2009,05,03,10,17,12.10
2009,05,03,10,18,12.20
2009,05,03,10,19,12.30
2009,05,03,10,20,12.40
2009,05,03,10,21,12.30
2009,05,03,10,22,12.30
2009,05,03,10,23,12.30
2009,05,03,10,24,12.30
2009,05,03,10,25,12.30
2009,05,03,10,26,12.30
2009,05,03,10,27,12.40
2009,05,03,10,28,12.40
2009,05,03,10,29,12.50
2009,05,03,10,30,12.50
2009,05,03,10,31,12.50
2009,05,03,10,32,12.60
2009,05,03,10,33,12.60
2009,05,03,10,34,12.50
2009,05,03,10,35,12.40
2009,05,03,10,36,12.40
2009,05,03,10,37,12.40
2009,05,03,10,38,12.60
2009,05,03,10,39,12.50
2009,05,03,10,40,12.40
2009,05,03,10,41,12.30
2009,05,03,10,42,12.30
2009,05,03,10,43,12.30
2009,05,03,10,44,12.20
2009,05,03,10,45,12.20
2009,05,03,10,46,12.20
2009,05,03,10,47,12.20
2009,05,03,10,48,12.20
2009,05,03,10,49,12.30
2009,05,03,10,50,12.30
2009,05,03,10,51,12.30
2009,05,03,10,52,12.30
2009,05,03,10,53,12.20
2009,05,03,10,54,12.20
2009,05,03,10,55,12.40
2009,05,03,10,56,12.40
2009,05,03,10,57,12.60
2009,05,03,10,58,12.80
2009,05,03,10,59,12.90
2009,05,03,11,00,12.90
2009,05,03,11,01,12.80
2009,05,03,11,02,12.70
2009,05,03,11,03,12.60
2009,05,03,11,04,12.60
2009,05,03,11,05,12.60
2009,05,03,11,06,12.60
2009,05,03,11,07,12.60
2009,05,03,11,08,12.60
2009,05,03,11,09,12.60
2009,05,03,11,10,12.70
2009,05,03,11,11,12.80
2009,05,03,11,12,12.70
2009,05,03,11,13,12.60
2009,05,03,11,14,12.60
2009,05,03,11,15,12.60
2009,05,03,11,16,12.40
2009,05,03,11,17,12.40
2009,05,03,11,18,12.30
2009,05,03,11,19,12.30
2009,05,03,11,20,12.30
2009,05,03,11,21,12.20
2009,05,03,11,22,12.20
2009,05,03,11,23,12.10
2009,05,03,11,24,12.10
2009,05,03,11,25,12.00
2009,05,03,11,26,12.10
2009,05,03,11,27,12.10
2009,05,03,11,28,12.10
2009,05,03,11,29,12.10
2009,05,03,11,30,12.10
2009,05,03,11,31,12.10
2009,05,03,11,32,12.20
2009,05,03,11,33,12.30
2009,05,03,11,34,12.30
2009,05,03,11,35,12.30
2009,05,03,11,36,12.30
2009,05,03,11,37,12.30
2009,05,03,11,38,12.30
2009,05,03,11,39,12.20
2009,05,03,11,40,12.10
2009,05,03,11,41,12.10
2009,05,03,11,42,12.10
2009,05,03,11,43,12.10
2009,05,03,11,44,12.20
2009,05,03,11,45,12.20
2009,05,03,11,46,12.30
2009,05,03,11,47,12.30
2009,05,03,11,48,12.30
2009,05,03,11,49,12.30
2009,05,03,11,50,12.20
2009,05,03,11,51,12.10
2009,05,03,11,52,12.10
2009,05,03,11,53,12.10
2009,05,03,11,54,12.00
2009,05,03,11,55,12.00
2009,05,03,11,56,12.10
2009,05,03,11,57,12.20
2009,05,03,11,58,12.20
2009,05,03,11,59,12.20
2009,05,03,12,00,12.20
2009,05,03,12,01,12.20
2009,05,03,12,02,12.20
2009,05,03,12,03,12.20
2009,05,03,12,04,12.20
2009,05,03,12,05,12.20
2009,05,03,12,06,12.20
2009,05,03,12,07,12.20
2009,05,03,12,08,12.20
2009,05,03,12,09,12.20
2009,05,03,12,10,12.20
2009,05,03,12,11,12.30
2009,05,03,12,12,12.30
2009,05,03,12,13,12.50
2009,05,03,12,14,12.70
2009,05,03,12,15,12.80
2009,05,03,12,16,12.80
2009,05,03,12,17,12.90
2009,05,03,12,18,12.80
2009,05,03,12,19,12.90
2009,05,03,12,20,13.00
2009,05,03,12,21,13.20
2009,05,03,12,22,13.20
2009,05,03,12,23,13.20
2009,05,03,12,24,13.20
2009,05,03,12,25,13.10
2009,05,03,12,26,13.10
2009,05,03,12,27,13.10
2009,05,03,12,28,13.10
2009,05,03,12,29,13.20
2009,05,03,12,30,13.10
2009,05,03,12,31,13.00
2009,05,03,12,32,12.90
2009,05,03,12,33,12.70
2009,05,03,12,34,12.70
2009,05,03,12,35,12.70
2009,05,03,12,36,12.70
2009,05,03,12,37,12.60
2009,05,03,12,38,12.60
2009,05,03,12,39,12.60
2009,05,03,12,40,12.50
2009,05,03,12,41,12.40
2009,05,03,12,42,12.50
2009,05,03,12,43,12.50
2009,05,03,12,44,12.50
2009,05,03,12,45,12.60
2009,05,03,12,46,12.70
2009,05,03,12,47,12.80
2009,05,03,12,48,12.80
2009,05,03,12,49,12.80
2009,05,03,12,50,12.90
2009,05,03,12,51,13.00
2009,05,03,12,52,13.10
2009,05,03,12,53,13.10
2009,05,03,12,54,13.10
2009,05,03,12,55,13.00
2009,05,03,12,56,13.10
2009,05,03,12,57,13.10
2009,05,03,12,58,13.10
2009,05,03,12,59,13.20
2009,05,03,13,00,13.20
2009,05,03,13,01,13.10
2009,05,03,13,02,13.10
2009,05,03,13,03,13.10
2009,05,03,13,04,13.10
2009,05,03,13,05,13.10
2009,05,03,13,06,13.20
2009,05,03,13,07,13.40
2009,05,03,13,08,13.50
2009,05,03,13,09,13.40
2009,05,03,13,10,13.40
2009,05,03,13,11,13.50
2009,05,03,13,12,13.60
2009,05,03,13,13,13.60
2009,05,03,13,14,13.60
2009,05,03,13,15,13.50
2009,05,03,13,16,13.50
2009,05,03,13,17,13.50
2009,05,03,13,18,13.50
2009,05,03,13,19,13.50
2009,05,03,13,20,13.30
2009,05,03,13,21,13.20
2009,05,03,13,22,13.20
2009,05,03,13,23,13.10
2009,05,03,13,24,12.90
2009,05,03,13,25,12.80
2009,05,03,13,26,12.80
2009,05,03,13,27,12.80
2009,05,03,13,28,12.70
2009,05,03,13,29,12.70
2009,05,03,13,30,12.80
2009,05,03,13,31,12.90
2009,05,03,13,32,12.90
2009,05,03,13,33,13.00
2009,05,03,13,34,13.00
2009,05,03,13,35,13.10
2009,05,03,13,36,13.10
2009,05,03,13,37,13.10
2009,05,03,13,38,13.20
2009,05,03,13,39,13.30
2009,05,03,13,40,13.40
2009,05,03,13,41,13.40
2009,05,03,13,42,13.30
2009,05,03,13,43,13.20
2009,05,03,13,44,13.10
2009,05,03,13,45,13.10
2009,05,03,13,46,13.20
2009,05,03,13,47,13.30
2009,05,03,13,48,13.30
2009,05,03,13,49,13.20
2009,05,03,13,50,13.30
2009,05,03,13,51,13.30
2009,05,03,13,52,13.30
2009,05,03,13,53,13.40
2009,05,03,13,54,13.40
2009,05,03,13,55,13.30
2009,05,03,13,56,13.20
2009,05,03,13,57,13.20
2009,05,03,13,58,13.10
2009,05,03,13,59,13.00
2009,05,03,14,00,12.90
2009,05,03,14,01,12.90
2009,05,03,14,02,12.90
2009,05,03,14,03,12.80
2009,05,03,14,04,12.70
2009,05,03,14,05,12.70
2009,05,03,14,06,12.60
2009,05,03,14,07,12.40
2009,05,03,14,08,12.30
2009,05,03,14,09,12.30
2009,05,03,14,10,12.30
2009,05,03,14,11,12.30
2009,05,03,14,12,12.30
2009,05,03,14,13,12.30
2009,05,03,14,14,12.30
2009,05,03,14,15,12.30
2009,05,03,14,16,12.30
2009,05,03,14,17,12.30
2009,05,03,14,18,12.20
2009,05,03,14,19,12.20
2009,05,03,14,20,12.10
2009,05,03,14,21,12.10
2009,05,03,14,22,12.20
2009,05,03,14,23,12.20
2009,05,03,14,24,12.30
2009,05,03,14,25,12.30
2009,05,03,14,26,12.30
2009,05,03,14,27,12.30
2009,05,03,14,28,12.30
2009,05,03,14,29,12.30
2009,05,03,14,30,12.30
2009,05,03,14,31,12.30
2009,05,03,14,32,12.30
2009,05,03,14,33,12.30
2009,05,03,14,34,12.30
2009,05,03,14,35,12.20
2009,05,03,14,36,12.20
2009,05,03,14,37,12.20
2009,05,03,14,38,12.10
2009,05,03,14,39,12.10
2009,05,03,14,40,12.10
2009,05,03,14,41,12.00
2009,05,03,14,42,12.00
2009,05,03,14,43,11.90
2009,05,03,14,44,11.80
2009,05,03,14,45,11.70
2009,05,03,14,46,11.60
2009,05,03,14,47,11.50
2009,05,03,14,48,11.40
2009,05,03,14,49,11.40
2009,05,03,14,50,11.40
2009,05,03,14,51,11.30
2009,05,03,14,52,11.30
2009,05,03,14,53,11.20
2009,05,03,14,54,11.10
2009,05,03,14,55,11.10
2009,05,03,14,56,11.10
2009,05,03,14,57,11.10
2009,05,03,14,58,11.10
2009,05,03,14,59,11.20
2009,05,03,15,00,11.20
2009,05,03,15,01,11.20
2009,05,03,15,02,11.30
2009,05,03,15,03,11.30
2009,05,03,15,04,11.40
2009,05,03,15,05,11.50
2009,05,03,15,06,11.60
2009,05,03,15,07,11.60
2009,05,03,15,08,11.70
2009,05,03,15,09,11.80
2009,05,03,15,10,11.80
2009,05,03,15,11,11.90
2009,05,03,15,12,11.90
2009,05,03,15,13,11.90
2009,05,03,15,14,11.90
2009,05,03,15,15,11.90
2009,05,03,15,16,11.90
2009,05,03,15,17,11.90
2009,05,03,15,18,11.90
2009,05,03,15,19,11.90
2009,05,03,15,20,11.90
2009,05,03,15,21,11.90
2009,05,03,15,22,11.90
2009,05,03,15,23,11.80
2009,05,03,15,24,11.80
2009,05,03,15,25,11.80
2009,05,03,15,26,11.80
2009,05,03,15,27,11.70
2009,05,03,15,28,11.70
2009,05,03,15,29,11.70
2009,05,03,15,30,11.60
2009,05,03,15,31,11.60
2009,05,03,15,32,11.60
2009,05,03,15,33,11.60
2009,05,03,15,34,11.70
2009,05,03,15,35,11.70
2009,05,03,15,36,11.70
2009,05,03,15,37,11.80
2009,05,03,15,38,11.80
2009,05,03,15,39,11.90
2009,05,03,15,40,11.90
2009,05,03,15,41,11.90
2009,05,03,15,42,11.90
2009,05,03,15,43,11.80
2009,05,03,15,44,11.80
2009,05,03,15,45,11.80
2009,05,03,15,46,11.80
2009,05,03,15,47,11.80
2009,05,03,15,48,11.80
2009,05,03,15,49,11.80
2009,05,03,15,50,11.80
2009,05,03,15,51,11.80
2009,05,03,15,52,11.80
2009,05,03,15,53,11.80
2009,05,03,15,54,11.80
2009,05,03,15,55,11.80
2009,05,03,15,56,11.80
2009,05,03,15,57,11.80
2009,05,03,15,58,11.70
2009,05,03,15,59,11.70
2009,05,03,16,00,11.70
2009,05,03,16,01,11.60
2009,05,03,16,02,11.60
2009,05,03,16,03,11.50
2009,05,03,16,04,11.50
2009,05,03,16,05,11.50
2009,05,03,16,06,11.50
2009,05,03,16,07,11.60
2009,05,03,16,08,11.60
2009,05,03,16,09,11.60
2009,05,03,16,10,11.60
2009,05,03,16,11,11.60
2009,05,03,16,12,11.60
2009,05,03,16,13,11.70
2009,05,03,16,14,11.70
2009,05,03,16,15,11.70
2009,05,03,16,16,11.80
2009,05,03,16,17,11.80
2009,05,03,16,18,11.80
2009,05,03,16,19,11.90
2009,05,03,16,20,11.90
2009,05,03,16,21,12.00
2009,05,03,16,22,12.00
2009,05,03,16,23,12.00
2009,05,03,16,24,11.90
2009,05,03,16,25,11.90
2009,05,03,16,26,11.80
2009,05,03,16,27,11.80
2009,05,03,16,28,11.70
2009,05,03,16,29,11.70
2009,05,03,16,30,11.70
2009,05,03,16,31,11.70
2009,05,03,16,32,11.60
2009,05,03,16,33,11.60
2009,05,03,16,34,11.60
2009,05,03,16,35,11.60
2009,05,03,16,36,11.60
2009,05,03,16,37,11.60
2009,05,03,16,38,11.60
2009,05,03,16,39,11.70
2009,05,03,16,40,11.70
2009,05,03,16,41,11.70
2009,05,03,16,42,11.70
2009,05,03,16,43,11.70
2009,05,03,16,44,11.80
2009,05,03,16,45,11.80
2009,05,03,16,46,11.80
2009,05,03,16,47,11.80
2009,05,03,16,48,11.90
2009,05,03,16,49,11.90
2009,05,03,16,50,11.90
2009,05,03,16,51,12.00
2009,05,03,16,52,12.00
2009,05,03,16,53,12.00
2009,05,03,16,54,12.00
2009,05,03,16,55,11.90
2009,05,03,16,56,11.90
2009,05,03,16,57,11.90
2009,05,03,16,58,11.80
2009,05,03,16,59,11.80
2009,05,03,17,00,11.80
2009,05,03,17,01,11.80
2009,05,03,17,02,11.90
2009,05,03,17,03,11.90
2009,05,03,17,04,11.90
2009,05,03,17,05,11.90
2009,05,03,17,06,11.90
2009,05,03,17,07,11.90
2009,05,03,17,08,11.90
2009,05,03,17,09,11.90
2009,05,03,17,10,11.90
2009,05,03,17,11,11.90
2009,05,03,17,12,11.80
2009,05,03,17,13,11.80
2009,05,03,17,14,11.80
2009,05,03,17,15,11.70
2009,05,03,17,16,11.70
2009,05,03,17,17,11.70
2009,05,03,17,18,11.70
2009,05,03,17,19,11.70
2009,05,03,17,20,11.70
2009,05,03,17,21,11.70
2009,05,03,17,22,11.70
2009,05,03,17,23,11.70
2009,05,03,17,24,11.70
2009,05,03,17,25,11.70
2009,05,03,17,26,11.80
2009,05,03,17,27,11.80
2009,05,03,17,28,11.80
2009,05,03,17,29,11.70
2009,05,03,17,30,11.70
2009,05,03,17,31,11.70
2009,05,03,17,32,11.60
2009,05,03,17,33,11.60
2009,05,03,17,34,11.60
2009,05,03,17,35,11.50
2009,05,03,17,36,11.50
2009,05,03,17,37,11.50
2009,05,03,17,38,11.40
2009,05,03,17,39,11.40
2009,05,03,17,40,11.40
2009,05,03,17,41,11.30
2009,05,03,17,42,11.30
2009,05,03,17,43,11.30
2009,05,03,17,44,11.30
2009,05,03,17,45,11.20
2009,05,03,17,46,11.20
2009,05,03,17,47,11.20
2009,05,03,17,48,11.20
2009,05,03,17,49,11.20
2009,05,03,17,50,11.10
2009,05,03,17,51,11.10
2009,05,03,17,52,11.10
2009,05,03,17,53,11.10
2009,05,03,17,54,11.10
2009,05,03,17,55,11.20
2009,05,03,17,56,11.20
2009,05,03,17,57,11.20
2009,05,03,17,58,11.20
2009,05,03,17,59,11.10
2009,05,03,18,00,11.10
2009,05,03,18,01,11.10
2009,05,03,18,02,11.10
2009,05,03,18,03,11.10
2009,05,03,18,04,11.10
2009,05,03,18,05,11.00
2009,05,03,18,06,11.00
2009,05,03,18,07,11.00
2009,05,03,18,08,10.90
2009,05,03,18,09,10.90
2009,05,03,18,10,10.80
2009,05,03,18,11,10.80
2009,05,03,18,12,10.70
2009,05,03,18,13,10.70
2009,05,03,18,14,10.70
2009,05,03,18,15,10.70
2009,05,03,18,16,10.70
2009,05,03,18,17,10.70
2009,05,03,18,18,10.70
2009,05,03,18,19,10.70
2009,05,03,18,20,10.70
2009,05,03,18,21,10.70
2009,05,03,18,22,10.70
2009,05,03,18,23,10.70
2009,05,03,18,24,10.70
2009,05,03,18,25,10.70
2009,05,03,18,26,10.70
2009,05,03,18,27,10.70
2009,05,03,18,28,10.70
2009,05,03,18,29,10.70
2009,05,03,18,30,10.70
2009,05,03,18,31,10.70
2009,05,03,18,32,10.70
2009,05,03,18,33,10.70
2009,05,03,18,34,10.70
2009,05,03,18,35,10.70
2009,05,03,18,36,10.70
2009,05,03,18,37,10.70
2009,05,03,18,38,10.70
2009,05,03,18,39,10.70
2009,05,03,18,40,10.70
2009,05,03,18,41,10.70
2009,05,03,18,42,10.70
2009,05,03,18,43,10.70
2009,05,03,18,44,10.70
2009,05,03,18,45,10.70
2009,05,03,18,46,10.70
2009,05,03,18,47,10.70
2009,05,03,18,48,10.70
2009,05,03,18,49,10.70
2009,05,03,18,50,10.70
2009,05,03,18,51,10.70
2009,05,03,18,52,10.70
2009,05,03,18,53,10.70
2009,05,03,18,54,10.70
2009,05,03,18,55,10.70
2009,05,03,18,56,10.70
2009,05,03,18,57,10.70
2009,05,03,18,58,10.70
2009,05,03,18,59,10.70
2009,05,03,19,00,10.70
